Location: Morgantown
(40.9734°N, 80.6323°W)
Time: 22:07:52
(UTC+00:00)

Cosmos 1400 Rocket - Pass Details

Date: 29 October 2020
Orbit: 521 x 568 km, 81.2° (Epoch: 03 December)

Event Time Altitude Azimuth Distance (km) Brightness Sun altitude
Rises 23:27:34 0° 200° (SSW) 2,751 6.8 -13.0°
Reaches altitude 10° 23:29:47 10° 205° (SSW) 1,856 5.9 -13.4°
Maximum altitude 23:33:47 51° 282° (WNW) 714 3.8 -14.2°
Drops below altitude 10° 23:37:47 10° 359° (N) 1,851 5.5 -14.9°
Sets 23:40:00 0° 5° (N) 2,744 6.3 -15.4°
